Time,TemperatureF,DewpointF,PressureIn,WindDirection,WindDirectionDegrees,WindSpeedMPH,WindSpeedGustMPH,Humidity,HourlyPrecipIn,Conditions,Clouds,dailyrainin,SoftwareType,DateUTC
2013-03-21 00:07:00,14.0,11.9,29.80,SW,225,0.0,-999.0,91,-99.99,,,0.00,Acu-Link.com,2013-03-21 04:07:00,
2013-03-21 00:22:00,14.0,11.9,29.80,SW,225,0.0,-999.0,91,-99.99,,,0.00,Acu-Link.com,2013-03-21 04:22:00,
2013-03-21 00:37:00,13.8,11.7,29.79,West,270,0.0,-999.0,91,-99.99,,,0.00,Acu-Link.com,2013-03-21 04:37:00,
2013-03-21 00:53:00,13.6,11.3,29.79,WNW,292,0.0,-999.0,90,-99.99,,,0.00,Acu-Link.com,2013-03-21 04:53:00,
2013-03-21 01:08:00,13.5,10.8,29.79,West,270,0.0,-999.0,89,-99.99,,,0.00,Acu-Link.com,2013-03-21 05:08:00,
2013-03-21 01:23:00,13.3,10.4,29.79,WNW,292,0.0,-999.0,88,-99.99,,,0.00,Acu-Link.com,2013-03-21 05:23:00,
2013-03-21 01:38:00,13.3,10.4,29.79,NW,315,0.0,-999.0,88,-99.99,,,0.00,Acu-Link.com,2013-03-21 05:38:00,
2013-03-21 01:53:00,13.3,9.9,29.79,WSW,247,0.0,-999.0,86,-99.99,,,0.00,Acu-Link.com,2013-03-21 05:53:00,
2013-03-21 02:09:00,12.9,9.5,29.78,NNW,337,0.0,-999.0,86,-99.99,,,0.00,Acu-Link.com,2013-03-21 06:09:00,
2013-03-21 02:24:00,12.6,8.7,29.78,West,270,0.0,-999.0,84,-99.99,,,0.00,Acu-Link.com,2013-03-21 06:24:00,
2013-03-21 02:39:00,12.6,8.4,29.78,WSW,247,0.0,-999.0,83,-99.99,,,0.00,Acu-Link.com,2013-03-21 06:39:00,
2013-03-21 02:54:00,12.2,7.8,29.79,WSW,247,0.0,-999.0,82,-99.99,,,0.00,Acu-Link.com,2013-03-21 06:54:00,
2013-03-21 03:09:00,12.2,7.5,29.78,WSW,247,0.0,-999.0,81,-99.99,,,0.00,Acu-Link.com,2013-03-21 07:09:00,
2013-03-21 03:25:00,12.4,5.1,29.78,West,270,0.0,-999.0,72,-99.99,,,0.00,Acu-Link.com,2013-03-21 07:25:00,
2013-03-21 03:40:00,12.9,5.9,29.77,SW,225,0.0,-999.0,73,-99.99,,,0.00,Acu-Link.com,2013-03-21 07:40:00,
2013-03-21 03:55:00,12.9,7.4,29.77,West,270,0.0,-999.0,78,-99.99,,,0.00,Acu-Link.com,2013-03-21 07:55:00,
2013-03-21 04:10:00,13.1,6.4,29.76,West,270,0.0,-999.0,74,-99.99,,,0.00,Acu-Link.com,2013-03-21 08:10:00,
2013-03-21 04:25:00,13.6,7.5,29.76,West,270,0.0,-999.0,76,-99.99,,,0.00,Acu-Link.com,2013-03-21 08:25:00,
2013-03-21 04:41:00,13.6,7.2,29.76,WNW,292,0.0,-999.0,75,-99.99,,,0.00,Acu-Link.com,2013-03-21 08:41:00,
2013-03-21 04:56:00,14.5,6.3,29.76,WNW,292,0.0,-999.0,69,-99.99,,,0.00,Acu-Link.com,2013-03-21 08:56:00,
2013-03-21 05:11:00,15.3,6.9,29.75,West,270,0.0,-999.0,69,-99.99,,,0.00,Acu-Link.com,2013-03-21 09:11:00,
2013-03-21 05:26:00,15.6,9.4,29.75,WSW,247,0.0,-999.0,76,-99.99,,,0.00,Acu-Link.com,2013-03-21 09:26:00,
2013-03-21 05:41:00,15.4,10.1,29.75,WSW,247,2.2,-999.0,79,-99.99,,,0.00,Acu-Link.com,2013-03-21 09:41:00,
2013-03-21 05:57:00,15.3,9.9,29.75,West,270,0.0,-999.0,79,-99.99,,,0.00,Acu-Link.com,2013-03-21 09:57:00,
2013-03-21 06:12:00,15.3,9.9,29.75,West,270,0.0,-999.0,79,-99.99,,,0.00,Acu-Link.com,2013-03-21 10:12:00,
2013-03-21 06:27:00,14.7,9.7,29.74,ENE,67,0.0,-999.0,80,-99.99,,,0.00,Acu-Link.com,2013-03-21 10:27:00,
2013-03-21 06:42:00,14.2,8.9,29.74,West,270,0.0,-999.0,79,-99.99,,,0.00,Acu-Link.com,2013-03-21 10:42:00,
2013-03-21 06:57:00,14.0,8.1,29.75,WSW,247,0.0,-999.0,77,-99.99,,,0.00,Acu-Link.com,2013-03-21 10:57:00,
2013-03-21 07:13:00,14.7,4.8,29.74,NNW,337,0.0,-999.0,64,-99.99,,,0.00,Acu-Link.com,2013-03-21 11:13:00,
2013-03-21 07:28:00,15.1,5.8,29.74,West,270,0.0,-999.0,66,-99.99,,,0.00,Acu-Link.com,2013-03-21 11:28:00,
2013-03-21 07:43:00,15.6,5.6,29.74,North,0,0.0,-999.0,64,-99.99,,,0.00,Acu-Link.com,2013-03-21 11:43:00,
2013-03-21 07:58:00,16.3,4.9,29.74,East,90,0.0,-999.0,60,-99.99,,,0.00,Acu-Link.com,2013-03-21 11:58:00,
2013-03-21 08:14:00,17.1,7.4,29.74,West,270,0.0,-999.0,65,-99.99,,,0.00,Acu-Link.com,2013-03-21 12:14:00,
2013-03-21 08:29:00,18.0,8.9,29.74,WSW,247,0.0,-999.0,67,-99.99,,,0.00,Acu-Link.com,2013-03-21 12:29:00,
2013-03-21 08:59:00,22.5,20.2,29.73,NNW,337,0.0,-999.0,91,-99.99,,,0.00,Acu-Link.com,2013-03-21 12:59:00,
2013-03-21 09:14:00,25.9,24.4,29.73,West,270,2.7,-999.0,94,-99.99,,,0.00,Acu-Link.com,2013-03-21 13:14:00,
2013-03-21 09:30:00,27.3,25.0,29.73,WNW,292,3.8,-999.0,91,-99.99,,,0.00,Acu-Link.com,2013-03-21 13:30:00,
2013-03-21 09:45:00,23.9,22.2,29.75,NW,315,5.1,-999.0,93,-99.99,,,0.00,Acu-Link.com,2013-03-21 13:45:00,
2013-03-21 10:00:00,23.5,21.8,29.75,NW,315,4.3,-999.0,93,-99.99,,,0.00,Acu-Link.com,2013-03-21 14:00:00,
2013-03-21 10:15:00,24.3,22.5,29.75,WSW,247,5.1,-999.0,93,-99.99,,,0.00,Acu-Link.com,2013-03-21 14:15:00,
2013-03-21 10:30:00,24.8,23.1,29.75,WNW,292,5.1,-999.0,93,-99.99,,,0.00,Acu-Link.com,2013-03-21 14:30:00,
2013-03-21 10:46:00,27.5,25.5,29.75,WSW,247,6.7,-999.0,92,-99.99,,,0.00,Acu-Link.com,2013-03-21 14:46:00,
2013-03-21 11:16:00,27.3,25.6,29.75,North,0,4.3,-999.0,93,-99.99,,,0.00,Acu-Link.com,2013-03-21 15:16:00,
2013-03-21 11:31:00,27.5,25.5,29.76,NW,315,6.3,-999.0,92,-99.99,,,0.00,Acu-Link.com,2013-03-21 15:31:00,
2013-03-21 11:46:00,28.2,26.5,29.76,NNW,337,3.8,-999.0,93,-99.99,,,0.00,Acu-Link.com,2013-03-21 15:46:00,
2013-03-21 12:02:00,28.6,26.6,29.76,NW,315,5.8,-999.0,92,-99.99,,,0.00,Acu-Link.com,2013-03-21 16:02:00,
2013-03-21 12:17:00,28.6,26.3,29.76,NW,315,6.7,-999.0,91,-99.99,,,0.00,Acu-Link.com,2013-03-21 16:17:00,
2013-03-21 12:32:00,29.8,27.5,29.77,West,270,3.1,-999.0,91,-99.99,,,0.00,Acu-Link.com,2013-03-21 16:32:00,
2013-03-21 12:47:00,30.0,26.9,29.76,NW,315,5.1,-999.0,88,-99.99,,,0.00,Acu-Link.com,2013-03-21 16:47:00,
2013-03-21 13:03:00,31.6,27.9,29.76,NW,315,4.7,-999.0,86,-99.99,,,0.00,Acu-Link.com,2013-03-21 17:03:00,
2013-03-21 13:18:00,33.1,28.5,29.76,WNW,292,11.4,-999.0,83,-99.99,,,0.00,Acu-Link.com,2013-03-21 17:18:00,
2013-03-21 13:33:00,32.7,28.4,29.76,West,270,0.0,-999.0,84,-99.99,,,0.00,Acu-Link.com,2013-03-21 17:33:00,
2013-03-21 13:48:00,33.8,27.4,29.75,WNW,292,6.3,-999.0,77,-99.99,,,0.00,Acu-Link.com,2013-03-21 17:48:00,
2013-03-21 14:03:00,32.2,26.1,29.76,WSW,247,1.6,-999.0,78,-99.99,,,0.00,Acu-Link.com,2013-03-21 18:03:00,
2013-03-21 14:19:00,32.4,27.2,29.76,West,270,5.8,-999.0,81,-99.99,,,0.00,Acu-Link.com,2013-03-21 18:19:00,
2013-03-21 14:34:00,32.0,25.9,29.75,West,270,6.7,-999.0,78,-99.99,,,0.00,Acu-Link.com,2013-03-21 18:34:00,
2013-03-21 14:49:00,31.5,25.7,29.76,SW,225,2.7,-999.0,79,-99.99,,,0.00,Acu-Link.com,2013-03-21 18:49:00,
2013-03-21 15:04:00,31.1,25.1,29.76,SW,225,5.8,-999.0,78,-99.99,,,0.00,Acu-Link.com,2013-03-21 19:04:00,
2013-03-21 15:19:00,30.6,25.4,29.76,NW,315,3.1,-999.0,81,-99.99,,,0.00,Acu-Link.com,2013-03-21 19:19:00,
2013-03-21 15:35:00,30.6,25.4,29.76,WNW,292,4.7,-999.0,81,-99.99,,,0.00,Acu-Link.com,2013-03-21 19:35:00,
2013-03-21 15:50:00,31.8,27.0,29.76,NNW,337,2.2,-999.0,82,-99.99,,,0.00,Acu-Link.com,2013-03-21 19:50:00,
2013-03-21 16:05:00,32.4,27.5,29.76,West,270,4.7,-999.0,82,-99.99,,,0.00,Acu-Link.com,2013-03-21 20:05:00,
2013-03-21 16:20:00,31.5,27.5,29.76,WNW,292,0.0,-999.0,85,-99.99,,,0.00,Acu-Link.com,2013-03-21 20:20:00,
2013-03-21 16:35:00,32.9,28.3,29.76,West,270,2.7,-999.0,83,-99.99,,,0.00,Acu-Link.com,2013-03-21 20:35:00,
2013-03-21 17:21:00,31.8,26.7,29.76,West,270,3.8,-999.0,81,-99.99,,,0.00,Acu-Link.com,2013-03-21 21:21:00,
2013-03-21 17:36:00,32.4,27.5,29.76,WNW,292,0.0,-999.0,82,-99.99,,,0.00,Acu-Link.com,2013-03-21 21:36:00,
2013-03-21 17:51:00,30.7,26.2,29.76,WNW,292,3.8,-999.0,83,-99.99,,,0.00,Acu-Link.com,2013-03-21 21:51:00,
2013-03-21 18:07:00,30.4,27.0,29.76,West,270,4.3,-999.0,87,-99.99,,,0.00,Acu-Link.com,2013-03-21 22:07:00,
2013-03-21 18:22:00,30.7,26.8,29.76,West,270,4.3,-999.0,85,-99.99,,,0.00,Acu-Link.com,2013-03-21 22:22:00,
2013-03-21 18:52:00,29.8,27.3,29.77,WSW,247,0.0,-999.0,90,-99.99,,,0.00,Acu-Link.com,2013-03-21 22:52:00,
2013-03-21 19:08:00,29.5,26.4,29.77,WSW,247,7.8,-999.0,88,-99.99,,,0.00,Acu-Link.com,2013-03-21 23:08:00,
2013-03-21 19:23:00,29.1,26.3,29.77,West,270,4.7,-999.0,89,-99.99,,,0.00,Acu-Link.com,2013-03-21 23:23:00,
2013-03-21 19:38:00,28.8,26.2,29.77,WNW,292,3.8,-999.0,90,-99.99,,,0.00,Acu-Link.com,2013-03-21 23:38:00,
2013-03-21 19:53:00,28.6,26.3,29.78,NW,315,8.9,-999.0,91,-99.99,,,0.00,Acu-Link.com,2013-03-21 23:53:00,
2013-03-21 20:08:00,28.4,26.4,29.78,NE,45,3.1,-999.0,92,-99.99,,,0.00,Acu-Link.com,2013-03-22 00:08:00,
2013-03-21 20:24:00,27.5,25.5,29.79,WNW,292,2.2,-999.0,92,-99.99,,,0.00,Acu-Link.com,2013-03-22 00:24:00,
2013-03-21 20:39:00,27.5,25.7,29.79,NNW,337,2.7,-999.0,93,-99.99,,,0.00,Acu-Link.com,2013-03-22 00:39:00,
2013-03-21 20:54:00,27.3,25.6,29.79,West,270,1.1,-999.0,93,-99.99,,,0.00,Acu-Link.com,2013-03-22 00:54:00,
2013-03-21 21:09:00,27.3,25.6,29.79,West,270,4.7,-999.0,93,-99.99,,,0.00,Acu-Link.com,2013-03-22 01:09:00,
2013-03-21 21:24:00,27.1,25.4,29.79,WSW,247,0.0,-999.0,93,-99.99,,,0.00,Acu-Link.com,2013-03-22 01:24:00,
2013-03-21 21:40:00,27.0,25.2,29.79,WNW,292,4.3,-999.0,93,-99.99,,,0.00,Acu-Link.com,2013-03-22 01:40:00,
2013-03-21 21:55:00,27.0,25.2,29.79,WSW,247,0.0,-999.0,93,-99.99,,,0.00,Acu-Link.com,2013-03-22 01:55:00,
2013-03-21 22:10:00,26.8,24.8,29.79,West,270,3.1,-999.0,92,-99.99,,,0.00,Acu-Link.com,2013-03-22 02:10:00,
2013-03-21 22:25:00,26.6,24.6,29.80,WNW,292,6.7,-999.0,92,-99.99,,,0.00,Acu-Link.com,2013-03-22 02:25:00,
2013-03-21 22:40:00,26.6,24.6,29.80,NW,315,3.8,-999.0,92,-99.99,,,0.00,Acu-Link.com,2013-03-22 02:40:00,
2013-03-21 23:26:00,26.2,24.0,29.81,WNW,292,3.1,-999.0,91,-99.99,,,0.00,Acu-Link.com,2013-03-22 03:26:00,
2013-03-21 23:57:00,25.9,23.4,29.81,NW,315,3.8,-999.0,90,-99.99,,,0.00,Acu-Link.com,2013-03-22 03:57:00,